• în România
  • Lista ţărilor
  • Pe 7 zile
  • Temperatura apei
  • Hartă satelitară
  • Meteo pe hartă
  • Widget-uri
  • user-avatar
    Intrare

    Meteo pe oră la Zalaegerszeg

    Astăzi, 22 Aprilie, Duminică

    Timp Temperatura Precipitaţii Vânt Presiune Umiditate
    00:00 +15°C° 0 mm 2 m/s 748 mmHg 69%
    01:00 +15°C° 0 mm 2 m/s 748 mmHg 69%
    02:00 +15°C° 0 mm 1 m/s 748 mmHg 71%
    03:00 +14°C° 0 mm 1 m/s 748 mmHg 72%
    04:00 +14°C° 0 mm 1 m/s 748 mmHg 73%
    05:00 +15°C° 0 mm 1 m/s 748 mmHg 71%
    06:00 +16°C° 0 mm 1 m/s 748 mmHg 70%
    07:00 +18°C° 0 mm 1 m/s 748 mmHg 68%
    08:00 +20°C° 0 mm 1 m/s 748 mmHg 63%
    09:00 +22°C° 0 mm 1 m/s 748 mmHg 58%
    10:00 +25°C° 0 mm 1 m/s 748 mmHg 53%
    11:00 +26°C° 0 mm 1 m/s 748 mmHg 51%
    12:00 +27°C° 0 mm 1 m/s 748 mmHg 48%
    13:00 +28°C° 0 mm 1 m/s 747 mmHg 46%
    14:00 +28°C° 0 mm 1 m/s 747 mmHg 46%
    15:00 +28°C° 0 mm 1 m/s 747 mmHg 46%
    16:00 +28°C° 0 mm 1 m/s 746 mmHg 46%
    17:00 +26°C° 0 mm 1 m/s 746 mmHg 52%
    18:00 +24°C° 0 mm 1 m/s 746 mmHg 59%
    19:00 +22°C° 0 mm 1 m/s 746 mmHg 66%
    20:00 +21°C° 0,4 mm 1 m/s 747 mmHg 69%
    21:00 +20°C° 0,4 mm 1 m/s 747 mmHg 72%
    22:00 +18°C° 0,4 mm 0 m/s 747 mmHg 75%
    23:00 +17°C° 0,4 mm 0 m/s 747 mmHg 77%

    Mâine, 23 Aprilie, Luni

    Timp Temperatura Precipitaţii Vânt Presiune Umiditate
    00:00 +19°C° 0,4 mm 1 m/s 747 mmHg 79%
    01:00 +19°C° 0,4 mm 1 m/s 747 mmHg 80%
    02:00 +18°C° 0,1 mm 1 m/s 747 mmHg 82%
    03:00 +18°C° 0,1 mm 1 m/s 747 mmHg 84%
    04:00 +16°C° 0,1 mm 1 m/s 747 mmHg 86%
    05:00 +18°C° 0 mm 1 m/s 747 mmHg 83%
    06:00 +19°C° 0 mm 1 m/s 747 mmHg 80%
    07:00 +20°C° 0 mm 1 m/s 748 mmHg 78%
    08:00 +22°C° 0 mm 1 m/s 748 mmHg 72%
    09:00 +24°C° 0 mm 1 m/s 748 mmHg 65%
    10:00 +25°C° 0 mm 1 m/s 748 mmHg 59%
    11:00 +26°C° 0 mm 1 m/s 748 mmHg 55%
    12:00 +27°C° 0 mm 1 m/s 747 mmHg 52%
    13:00 +28°C° 0 mm 1 m/s 747 mmHg 48%
    14:00 +28°C° 0 mm 1 m/s 747 mmHg 49%
    15:00 +28°C° 0 mm 1 m/s 747 mmHg 51%
    16:00 +27°C° 0 mm 2 m/s 746 mmHg 52%
    17:00 +26°C° 0,1 mm 1 m/s 746 mmHg 59%
    18:00 +24°C° 0,1 mm 1 m/s 746 mmHg 65%
    19:00 +22°C° 0,1 mm 1 m/s 746 mmHg 72%
    20:00 +21°C° 0,8 mm 1 m/s 747 mmHg 74%
    21:00 +21°C° 0,8 mm 1 m/s 747 mmHg 75%
    22:00 +20°C° 0,8 mm 1 m/s 748 mmHg 77%
    23:00 +18°C° 1,3 mm 2 m/s 748 mmHg 81%

    Poimâine, 24 Aprilie, Marţi

    Timp Temperatura Precipitaţii Vânt Presiune Umiditate
    00:00 +18°C° 1,3 mm 2 m/s 748 mmHg 85%
    01:00 +17°C° 1,3 mm 3 m/s 748 mmHg 88%
    02:00 +17°C° 0,5 mm 2 m/s 748 mmHg 88%
    03:00 +17°C° 0,5 mm 2 m/s 748 mmHg 87%
    04:00 +16°C° 0,5 mm 2 m/s 748 mmHg 87%
    05:00 +17°C° 0 mm 2 m/s 749 mmHg 86%
    06:00 +17°C° 0 mm 3 m/s 749 mmHg 84%
    07:00 +18°C° 0 mm 3 m/s 750 mmHg 83%
    08:00 +19°C° 0 mm 3 m/s 750 mmHg 76%
    09:00 +21°C° 0 mm 3 m/s 750 mmHg 69%
    10:00 +22°C° 0 mm 3 m/s 750 mmHg 63%
    11:00 +24°C° 0,2 mm 3 m/s 750 mmHg 60%
    12:00 +24°C° 0,2 mm 2 m/s 750 mmHg 57%
    13:00 +25°C° 0,2 mm 2 m/s 750 mmHg 54%
    14:00 +25°C° 0,1 mm 2 m/s 749 mmHg 54%
    15:00 +25°C° 0,1 mm 2 m/s 749 mmHg 54%
    16:00 +25°C° 0,1 mm 1 m/s 749 mmHg 54%
    17:00 +23°C° 0 mm 1 m/s 749 mmHg 60%
    18:00 +22°C° 0 mm 1 m/s 748 mmHg 66%
    19:00 +20°C° 0 mm 1 m/s 748 mmHg 72%
    20:00 +20°C° 0 mm 1 m/s 749 mmHg 74%
    21:00 +19°C° 0 mm 1 m/s 749 mmHg 75%
    22:00 +19°C° 0 mm 1 m/s 749 mmHg 77%
    23:00 +18°C° 0 mm 1 m/s 749 mmHg 78%

    25 Aprilie, Miercuri

    Timp Temperatura Precipitaţii Vânt Presiune Umiditate
    00:00 +18°C° 0 mm 1 m/s 749 mmHg 80%
    01:00 +16°C° 0 mm 1 m/s 749 mmHg 82%
    02:00 +16°C° 0 mm 1 m/s 748 mmHg 83%
    03:00 +15°C° 0 mm 1 m/s 748 mmHg 85%
    04:00 +15°C° 0 mm 1 m/s 748 mmHg 86%
    05:00 +16°C° 0 mm 1 m/s 748 mmHg 83%
    06:00 +18°C° 0 mm 1 m/s 748 mmHg 80%
    07:00 +19°C° 0 mm 1 m/s 748 mmHg 77%
    08:00 +20°C° 0 mm 2 m/s 748 mmHg 72%
    09:00 +23°C° 0 mm 2 m/s 748 mmHg 66%
    10:00 +25°C° 0 mm 3 m/s 748 mmHg 60%
    11:00 +26°C° 0,1 mm 3 m/s 748 mmHg 58%
    12:00 +26°C° 0,1 mm 3 m/s 747 mmHg 55%
    13:00 +27°C° 0,1 mm 3 m/s 747 mmHg 52%
    14:00 +27°C° 0 mm 3 m/s 746 mmHg 53%
    15:00 +27°C° 0 mm 3 m/s 746 mmHg 53%
    16:00 +27°C° 0 mm 3 m/s 745 mmHg 54%
    17:00 +25°C° 0 mm 3 m/s 745 mmHg 60%
    18:00 +22°C° 0 mm 3 m/s 745 mmHg 67%
    19:00 +21°C° 0 mm 2 m/s 745 mmHg 74%
    20:00 +20°C° 0 mm 2 m/s 745 mmHg 76%
    21:00 +19°C° 0 mm 2 m/s 745 mmHg 79%
    22:00 +18°C° 0 mm 2 m/s 746 mmHg 81%
    23:00 +17°C° 0 mm 2 m/s 746 mmHg 83%

    26 Aprilie, Joi

    Timp Temperatura Precipitaţii Vânt Presiune Umiditate
    00:00 +17°C° 0 mm 2 m/s 746 mmHg 84%
    01:00 +16°C° 0 mm 1 m/s 746 mmHg 86%
    02:00 +16°C° 0 mm 1 m/s 746 mmHg 87%
    03:00 +15°C° 0 mm 1 m/s 746 mmHg 88%
    04:00 +15°C° 0 mm 1 m/s 746 mmHg 89%
    05:00 +16°C° 0 mm 2 m/s 746 mmHg 84%
    06:00 +17°C° 0 mm 2 m/s 746 mmHg 80%
    07:00 +19°C° 0 mm 2 m/s 747 mmHg 75%
    08:00 +20°C° 0 mm 3 m/s 747 mmHg 69%
    09:00 +21°C° 0 mm 3 m/s 747 mmHg 63%
    10:00 +23°C° 0 mm 4 m/s 747 mmHg 56%
    11:00 +24°C° 0 mm 3 m/s 746 mmHg 54%
    12:00 +25°C° 0 mm 3 m/s 746 mmHg 52%
    13:00 +25°C° 0 mm 3 m/s 745 mmHg 50%
    14:00 +25°C° 0,1 mm 3 m/s 745 mmHg 54%
    15:00 +24°C° 0,1 mm 3 m/s 745 mmHg 57%
    16:00 +22°C° 0,1 mm 3 m/s 744 mmHg 61%
    17:00 +20°C° 0,4 mm 4 m/s 744 mmHg 68%
    18:00 +17°C° 0,4 mm 5 m/s 745 mmHg 76%
    19:00 +14°C° 0,4 mm 6 m/s 745 mmHg 84%
    20:00 +14°C° 0,6 mm 6 m/s 745 mmHg 85%
    21:00 +13°C° 0,6 mm 6 m/s 746 mmHg 86%
    22:00 +11°C° 0,6 mm 6 m/s 747 mmHg 88%
    23:00 +11°C° 0,1 mm 6 m/s 747 mmHg 86%

    27 Aprilie, Vineri

    Timp Temperatura Precipitaţii Vânt Presiune Umiditate
    00:00 +11°C° 0,1 mm 6 m/s 747 mmHg 84%
    01:00 +11°C° 0,1 mm 6 m/s 747 mmHg 82%
    02:00 +10°C° 0,1 mm 6 m/s 747 mmHg 82%
    03:00 +10°C° 0,1 mm 5 m/s 747 mmHg 82%
    04:00 +10°C° 0,1 mm 5 m/s 747 mmHg 81%
    05:00 +10°C° 0,2 mm 5 m/s 748 mmHg 83%
    06:00 +11°C° 0,2 mm 4 m/s 748 mmHg 84%
    07:00 +11°C° 0,2 mm 4 m/s 748 mmHg 85%
    08:00 +12°C° 0 mm 4 m/s 748 mmHg 78%
    09:00 +13°C° 0 mm 4 m/s 748 mmHg 72%
    10:00 +14°C° 0 mm 4 m/s 748 mmHg 66%
    11:00 +16°C° 0 mm 3 m/s 748 mmHg 59%
    12:00 +17°C° 0 mm 3 m/s 748 mmHg 53%
    13:00 +18°C° 0 mm 3 m/s 747 mmHg 46%
    14:00 +18°C° 0 mm 3 m/s 747 mmHg 46%
    15:00 +19°C° 0 mm 2 m/s 747 mmHg 46%
    16:00 +19°C° 0 mm 2 m/s 746 mmHg 46%
    17:00 +17°C° 0 mm 2 m/s 746 mmHg 51%
    18:00 +15°C° 0 mm 1 m/s 747 mmHg 57%
    19:00 +14°C° 0 mm 1 m/s 747 mmHg 63%
    20:00 +13°C° 0 mm 1 m/s 747 mmHg 64%
    21:00 +12°C° 0 mm 1 m/s 747 mmHg 66%
    22:00 +11°C° 0 mm 0 m/s 747 mmHg 67%
    23:00 +10°C° 0 mm 0 m/s 747 mmHg 69%
    Arată mai mult